Weather History for KDRO - December, 2013

Change the Weather History Date:

Thursday, December 19, 2013

  Actual Average Record
Temperature  
Mean Temperature 36 °F 25 °F  
Max Temperature 47 °F 38 °F 54 °F (1980)
Min Temperature 25 °F 12 °F -7 °F (2012)
Degree Days  
Heating Degree Days 29 40  
Month to date heating degree days 829 713  
Since 1 July heating degree days 2512 2386  
Cooling Degree Days 0 0  
Month to date cooling degree days 0 0  
Year to date cooling degree days 388 243  
Moisture  
Dew Point 24 °F    
Average Humidity 63    
Maximum Humidity 85    
Minimum Humidity 41    
Precipitation  
Precipitation 0.00 in 0.04 in 1.73 in (1978)
Month to date precipitation 0.25 0.62  
Year to date precipitation 15.83 15.52  
Sea Level Pressure  
Sea Level Pressure 29.83 in    
Wind  
Wind Speed 3 mph (ENE)    
Max Wind Speed 13 mph    
Max Gust Speed 15 mph    
Visibility 10 miles    
Events      
T = Trace of Precipitation, MM = Missing Value Source: NWS Daily Summary

Daily Weather History Graph

Daily Weather History Graph

Search for Another Location

Airport or City:

Trip Planner

Search our weather history database for the weather conditions in past years. The results will help you decide how hot, cold, wet, or windy it might be!

Date:

Astronomy

Dec. 19, 2013 Rise Set
Actual Time 7:20 AM MST 4:56 PM MST
Civil Twilight 6:50 AM MST 5:25 PM MST
Nautical Twilight 6:18 AM MST 5:58 PM MST
Astronomical Twilight 5:46 AM MST 6:30 PM MST
Moon 7:22 PM MST (12/19) 8:43 AM MST (12/19)
Length of Visible Light 10h 34m
Length of Day
9h 36m
Waning Gibbous, 95% of the Moon is Illuminated
Dec 19
Waning Gibbous
Dec 25
Last Quarter
Jan 1
New
Jan 7
First Quarter
Jan 15
Full

Hourly Weather History & Observations

Time (MST) Temp. Windchill Dew Point Humidity Pressure Visibility Wind Dir Wind Speed Gust Speed Precip Events Conditions
12:53 AM 27.0 °F - 23.0 °F 85% 29.93 in 10.0 mi Calm Calm - N/A   Partly Cloudy
1:53 AM 28.0 °F 20.8 °F 24.1 °F 85% 29.89 in 10.0 mi East 6.9 mph - N/A   Overcast
2:53 AM 30.9 °F - 23.0 °F 72% 29.85 in 10.0 mi Calm Calm - N/A   Partly Cloudy
3:53 AM 26.1 °F 18.4 °F 21.9 °F 84% 29.88 in 10.0 mi ENE 6.9 mph - N/A   Scattered Clouds
4:53 AM 27.0 °F 21.6 °F 23.0 °F 85% 29.88 in 10.0 mi East 4.6 mph - N/A   Mostly Cloudy
5:53 AM 27.0 °F 23.0 °F 21.9 °F 81% 29.89 in 10.0 mi NE 3.5 mph - N/A   Clear
6:53 AM 27.0 °F 20.5 °F 21.9 °F 81% 29.88 in 10.0 mi ENE 5.8 mph - N/A   Clear
7:53 AM 27.0 °F 23.0 °F 23.0 °F 85% 29.88 in 10.0 mi ENE 3.5 mph - N/A   Clear
8:53 AM 28.9 °F 22.8 °F 23.0 °F 78% 29.89 in 10.0 mi ENE 5.8 mph - N/A   Clear
9:53 AM 34.0 °F 28.8 °F 21.9 °F 61% 29.88 in 10.0 mi ENE 5.8 mph - N/A   Clear
10:53 AM 37.9 °F 33.5 °F 23.0 °F 55% 29.87 in 10.0 mi ENE 5.8 mph - N/A   Clear
11:53 AM 41.0 °F 36.4 °F 23.0 °F 49% 29.81 in 10.0 mi East 6.9 mph - N/A   Clear
12:53 PM 44.1 °F - 23.0 °F 43% 29.76 in 10.0 mi Calm Calm - N/A   Clear
1:53 PM 45.0 °F 41.8 °F 25.0 °F 46% 29.73 in 10.0 mi NE 5.8 mph - N/A   Mostly Cloudy
2:53 PM 44.1 °F 40.1 °F 25.0 °F 47% 29.72 in 10.0 mi NE 6.9 mph - N/A   Mostly Cloudy
3:53 PM 43.0 °F 40.3 °F 24.1 °F 47% 29.76 in 10.0 mi North 4.6 mph - N/A   Scattered Clouds
4:53 PM 41.0 °F - 24.1 °F 51% 29.78 in 10.0 mi Calm Calm - N/A   Overcast
5:53 PM 37.9 °F - 24.1 °F 57% 29.79 in 10.0 mi Calm Calm - N/A   Clear
6:53 PM 36.0 °F 33.3 °F 25.0 °F 64% 29.81 in 10.0 mi NE 3.5 mph - N/A   Overcast
7:53 PM 34.0 °F - 26.1 °F 73% 29.83 in 10.0 mi Calm Calm - N/A   Overcast
8:53 PM 34.0 °F - 25.0 °F 70% 29.81 in 10.0 mi Calm Calm - N/A   Overcast
9:53 PM 37.0 °F - 25.0 °F 62% 29.78 in 10.0 mi Calm Calm - N/A   Overcast
10:53 PM 36.0 °F - 26.1 °F 67% 29.78 in 10.0 mi Calm Calm - N/A   Mostly Cloudy
11:53 PM 33.1 °F - 26.1 °F 75% 29.77 in 10.0 mi Calm Calm - N/A   Mostly Cloudy